Weather History for KRDU - September, 2012

Change the Weather History Date:

Saturday, September 29, 2012

  Actual Average Record
Temperature  
Mean Temperature 64 °F 67 °F  
Max Temperature 68 °F 78 °F 92 °F (1941)
Min Temperature 60 °F 56 °F 39 °F (1970)
Degree Days  
Heating Degree Days 1 2  
Month to date heating degree days 10 16  
Since 1 July heating degree days 10 17  
Cooling Degree Days 0 4  
Month to date cooling degree days 200 222  
Year to date cooling degree days 1822 1663  
Growing Degree Days 14 (Base 50)    
Moisture  
Dew Point 62 °F    
Average Humidity 94    
Maximum Humidity 97    
Minimum Humidity 90    
Precipitation  
Precipitation 0.99 in 0.13 in 2.70 in (1972)
Month to date precipitation 7.83 4.23  
Year to date precipitation 35.46 33.77  
Sea Level Pressure  
Sea Level Pressure 29.97 in    
Wind  
Wind Speed 4 mph (NE)    
Max Wind Speed 12 mph    
Max Gust Speed 14 mph    
Visibility 5 miles    
Events Fog , Rain , Thunderstorm    
T = Trace of Precipitation, MM = Missing Value Source: NWS Daily Summary

Daily Weather History Graph

Daily Weather History Graph

Search for Another Location

Airport or City:

Trip Planner

Search our weather history database for the weather conditions in past years. The results will help you decide how hot, cold, wet, or windy it might be!

Date:

Astronomy

Sep. 29, 2012 Rise Set
Actual Time 7:08 AM EDT 7:01 PM EDT
Civil Twilight 6:43 AM EDT 7:26 PM EDT
Nautical Twilight 6:13 AM EDT 7:56 PM EDT
Astronomical Twilight 5:43 AM EDT 8:26 PM EDT
Moon 6:34 PM EDT (9/29) 6:37 AM EDT (9/29)
Length of Visible Light 12h 43m
Length of Day
11h 52m
Full, 100% of the Moon is Illuminated
Sep 29
Full
Sep 29
Full
Oct 8
Last Quarter
Oct 15
New
Oct 21
First Quarter

Hourly Weather History & Observations

Time (EDT) Temp. Dew Point Humidity Pressure Visibility Wind Dir Wind Speed Gust Speed Precip Events Conditions
12:51 AM 66.2 °F 64.4 °F 94% 30.00 in 8.0 mi Calm Calm - N/A   Mostly Cloudy
1:51 AM 66.9 °F 64.9 °F 93% 29.99 in 7.0 mi Calm Calm - N/A   Mostly Cloudy
2:51 AM 66.9 °F 64.9 °F 93% 29.99 in 9.0 mi West 3.5 mph - N/A   Mostly Cloudy
3:11 AM 66.2 °F 64.4 °F 94% 29.99 in 8.0 mi WSW 4.6 mph - N/A Thunderstorm Thunderstorm
3:51 AM 66.9 °F 64.0 °F 90% 29.99 in 9.0 mi North 3.5 mph - N/A Thunderstorm Thunderstorm
4:51 AM 66.0 °F 64.0 °F 93% 29.99 in 3.0 mi SW 5.8 mph - 0.16 in Rain , Thunderstorm Thunderstorms and Rain
5:51 AM 66.0 °F 64.0 °F 93% 29.97 in 7.0 mi Calm Calm - 0.13 in   Mostly Cloudy
6:06 AM 66.2 °F 64.4 °F 94% 29.98 in 5.0 mi Calm Calm - N/A Thunderstorm Mostly Cloudy
6:51 AM 66.0 °F 64.0 °F 93% 29.98 in 8.0 mi Calm Calm - N/A   Mostly Cloudy
7:51 AM 66.0 °F 64.0 °F 93% 30.00 in 7.0 mi Calm Calm - 0.00 in Rain Light Rain
8:10 AM 66.2 °F 64.4 °F 94% 30.00 in 5.0 mi East 5.8 mph - 0.00 in Rain Light Rain
8:51 AM 66.9 °F 64.9 °F 93% 29.99 in 6.0 mi North 3.5 mph - 0.01 in Rain Light Rain
9:45 AM 66.2 °F 64.4 °F 94% 30.01 in 2.5 mi Calm Calm - 0.12 in Rain Light Rain
9:51 AM 66.9 °F 64.9 °F 93% 30.00 in 2.5 mi Calm Calm - 0.12 in Rain Light Rain
10:12 AM 66.2 °F 64.4 °F 94% 30.01 in 2.5 mi South 3.5 mph - 0.01 in Rain Light Rain
10:51 AM 68.0 °F 64.4 °F 88% 30.00 in 2.5 mi ENE 3.5 mph - N/A   Overcast
10:59 AM 68.0 °F 64.4 °F 88% 30.00 in 3.0 mi Calm Calm - N/A   Overcast
11:41 AM 64.4 °F 62.6 °F 94% 30.00 in 1.5 mi NNE 9.2 mph - 0.00 in Rain Light Rain
11:51 AM 64.0 °F 62.1 °F 93% 29.99 in 0.5 mi NNE 5.8 mph - 0.00 in Fog , Rain Light Rain
12:51 PM 64.0 °F 62.1 °F 93% 29.99 in 0.5 mi East 4.6 mph - 0.01 in Fog , Rain Light Rain
1:38 PM 62.6 °F 60.8 °F 94% 29.97 in 1.5 mi NE 8.1 mph - 0.04 in Rain Light Rain
1:51 PM 63.0 °F 61.0 °F 93% 29.96 in 1.5 mi ENE 9.2 mph - 0.07 in Rain Light Rain
2:51 PM 62.1 °F 59.0 °F 90% 29.95 in 3.0 mi East 6.9 mph - 0.02 in   Overcast
3:51 PM 62.1 °F 60.1 °F 93% 29.93 in 1.5 mi NE 6.9 mph - 0.04 in Rain Rain
4:51 PM 61.0 °F 59.0 °F 93% 29.91 in 1.5 mi NE 8.1 mph - 0.03 in Rain Light Rain
5:37 PM 60.8 °F 57.2 °F 88% 29.93 in 1.5 mi NNE 3.5 mph - 0.08 in Rain , Thunderstorm Thunderstorms and Rain
5:51 PM 61.0 °F 59.0 °F 93% 29.92 in 1.5 mi NNE 5.8 mph - 0.09 in Rain , Thunderstorm Thunderstorms and Rain
6:36 PM 60.8 °F 57.2 °F 88% 29.93 in 1.5 mi ENE 5.8 mph - 0.21 in Rain Rain
6:48 PM 60.8 °F 57.2 °F 88% 29.92 in 5.0 mi ESE 8.1 mph - 0.23 in Rain Light Rain
6:51 PM 60.1 °F 57.9 °F 93% 29.91 in 5.0 mi ESE 8.1 mph - 0.23 in Rain Light Rain
7:43 PM 60.8 °F 57.2 °F 88% 29.93 in 7.0 mi North 3.5 mph - 0.00 in   Overcast
7:51 PM 60.1 °F 57.9 °F 93% 29.92 in 7.0 mi NNE 3.5 mph - 0.00 in   Overcast
8:51 PM 60.1 °F 57.9 °F 93% 29.93 in 6.0 mi East 4.6 mph - 0.00 in Rain Rain
9:51 PM 61.0 °F 57.9 °F 90% 29.94 in 8.0 mi Calm Calm - 0.04 in Rain Light Rain
10:51 PM 60.1 °F 57.9 °F 93% 29.93 in 6.0 mi NE 3.5 mph - 0.03 in   Overcast
11:05 PM 60.8 °F 57.2 °F 88% 29.93 in 6.0 mi ENE 3.5 mph - 0.00 in Rain Light Rain
11:51 PM 60.1 °F 57.9 °F 93% 29.93 in 6.0 mi NE 4.6 mph - 0.00 in   Overcast